Location: Newark
(5.8900°S, 42.6378°W)
Time: 06:45:00
(UTC+00:00)

O/OREOS (USA 219) - Visible Passes

Search period start: 22 October 2019 00:00
Search period end: 01 November 2019 00:00
Orbit: 621 x 646 km, 72.0° (Epoch: 22 May)

Date Brightness Start Highest point End Pass type
(mag) Time Alt. Az. Time Alt. Az. Time Alt. Az.
22 Oct ? 20:59:20 10° ENE 21:00:51 11° ENE 21:02:21 10° E visible
22 Oct ? 22:35:52 10° NW 22:39:55 31° WSW 22:44:00 10° SSW visible
23 Oct ? 21:18:39 10° NNE 21:22:46 33° ENE 21:26:54 10° SE visible
23 Oct ? 23:00:52 10° W 23:01:59 11° WSW 23:03:05 10° WSW visible
24 Oct ? 21:40:09 10° NNW 21:44:44 81° WSW 21:49:20 10° SSE visible
25 Oct ? 22:02:52 10° NW 22:06:44 27° WSW 22:10:37 10° SSW visible
27 Oct ? 21:06:59 10° NNW 21:11:32 69° WSW 21:16:07 10° S visible
28 Oct ? 07:38:13 10° SE 07:40:14 13° ESE 07:42:14 10° E visible
28 Oct ? 21:29:54 10° NW 21:33:32 23° WSW 21:37:12 10° SSW visible
29 Oct ? 07:58:08 10° S 08:02:16 37° ESE 08:06:23 10° NE visible
31 Oct ? 07:04:29 10° SE 07:07:02 15° ESE 07:09:35 10° ENE visible
